| time (UTC) | temp C | wind direction | speed KPH | gust KPH | rain 1hr cm | rain 24hr cm | rain mn cm | humidity % | barometer mb |
| 20260505055423 | 13 | 199 | 3.2 | 3.2 | 0.00 | 0.00 | 0.00 | 66 | 1009.6 |
| 20260505054920 | 13 | 200 | 3.2 | 3.2 | 0.00 | 0.00 | 0.00 | 66 | 1009.6 |
| 20260505054417 | 13 | 195 | 3.2 | 3.2 | 0.00 | 0.00 | 0.00 | 66 | 1009.5 |
| 20260505053916 | 13 | 193 | 3.2 | 3.2 | 0.00 | 0.00 | 0.00 | 65 | 1009.6 |
| 20260505053412 | 13 | 218 | 4.8 | 4.8 | 0.00 | 0.00 | 0.00 | 65 | 1009.6 |
| 20260505052909 | 13 | 182 | 3.2 | 3.2 | 0.00 | 0.00 | 0.00 | 64 | 1009.5 |
| 20260505052406 | 13 | 210 | 1.6 | 3.2 | 0.00 | 0.00 | 0.00 | 64 | 1009.2 |
| 20260505051903 | 13 | 172 | 3.2 | 4.8 | 0.00 | 0.00 | 0.00 | 64 | 1009.5 |
| 20260505051400 | 13 | 194 | 4.8 | 4.8 | 0.00 | 0.00 | 0.00 | 63 | 1009.6 |
| 20260505050858 | 13 | 205 | 3.2 | 4.8 | 0.00 | 0.00 | 0.00 | 64 | 1009.5 |
| 20260505050357 | 13 | 187 | 4.8 | 4.8 | 0.00 | 0.00 | 0.00 | 63 | 1009.7 |
| 20260505041324 | 14 | 192 | 3.2 | 3.2 | 0.00 | 0.00 | 0.00 | 59 | 1009.6 |
| 20260505040821 | 14 | 192 | 4.8 | 4.8 | 0.00 | 0.00 | 0.00 | 59 | 1009.6 |
| 20260505040319 | 14 | 196 | 4.8 | 4.8 | 0.00 | 0.00 | 0.00 | 59 | 1009.5 |
| 20260505035815 | 14 | 179 | 4.8 | 4.8 | 0.00 | 0.00 | 0.00 | 58 | 1009.4 |
| 20260505035311 | 14 | 195 | 4.8 | 4.8 | 0.00 | 0.00 | 0.00 | 58 | 1009.7 |
| 20260505034808 | 14 | 192 | 4.8 | 4.8 | 0.00 | 0.00 | 0.00 | 58 | 1009.6 |
| 20260505034305 | 15 | 201 | 4.8 | 4.8 | 0.00 | 0.00 | 0.00 | 57 | 1009.5 |
| 20260505033802 | 15 | 206 | 3.2 | 3.2 | 0.00 | 0.00 | 0.00 | 57 | 1009.6 |
| 20260505033259 | 15 | 204 | 4.8 | 4.8 | 0.00 | 0.00 | 0.00 | 56 | 1009.3 |
| 20260505032757 | 15 | 178 | 6.4 | 8.0 | 0.00 | 0.00 | 0.00 | 56 | 1009.3 |
| 20260505032253 | 15 | 192 | 4.8 | 4.8 | 0.00 | 0.00 | 0.00 | 56 | 1009.2 |
| 20260505031750 | 15 | 207 | 4.8 | 4.8 | 0.00 | 0.00 | 0.00 | 55 | 1009.3 |
| 20260505031246 | 15 | 201 | 4.8 | 4.8 | 0.00 | 0.00 | 0.00 | 55 | 1009.5 |
| 20260505030744 | 15 | 232 | 3.2 | 4.8 | 0.00 | 0.00 | 0.00 | 55 | 1009.4 |
| 20260505030240 | 15 | 189 | 3.2 | 3.2 | 0.00 | 0.00 | 0.00 | 54 | 1009.5 |
| 20260505025735 | 15 | 237 | 1.6 | 3.2 | 0.00 | 0.00 | 0.00 | 54 | 1009.3 |
| 20260505025234 | 15 | 184 | 3.2 | 4.8 | 0.00 | 0.00 | 0.00 | 53 | 1009.4 |
| 20260505024732 | 15 | 197 | 3.2 | 4.8 | 0.00 | 0.00 | 0.00 | 53 | 1009.5 |
| 20260505024229 | 15 | 184 | 4.8 | 8.0 | 0.00 | 0.00 | 0.00 | 53 | 1009.5 |
| 20260505023726 | 15 | 205 | 4.8 | 4.8 | 0.00 | 0.00 | 0.00 | 53 | 1009.5 |
| 20260505023223 | 15 | 213 | 4.8 | 4.8 | 0.00 | 0.00 | 0.00 | 52 | 1009.4 |
| 20260505022721 | 15 | 186 | 4.8 | 4.8 | 0.00 | 0.00 | 0.00 | 52 | 1009.4 |
| 20260505022217 | 15 | 159 | 6.4 | 9.7 | 0.00 | 0.00 | 0.00 | 52 | 1009.5 |
| 20260505021714 | 15 | 204 | 3.2 | 3.2 | 0.00 | 0.00 | 0.00 | 51 | 1009.4 |
| 20260505021211 | 16 | 192 | 3.2 | 3.2 | 0.00 | 0.00 | 0.00 | 51 | 1009.6 |
| 20260505020707 | 16 | 208 | 4.8 | 4.8 | 0.00 | 0.00 | 0.00 | 51 | 1009.4 |
| 20260505020202 | 16 | 206 | 3.2 | 4.8 | 0.00 | 0.00 | 0.00 | 51 | 1009.4 |
| 20260505015700 | 16 | 187 | 4.8 | 4.8 | 0.00 | 0.00 | 0.00 | 50 | 1009.5 |
| 20260505015156 | 16 | 189 | 4.8 | 4.8 | 0.00 | 0.00 | 0.00 | 50 | 1009.3 |
| 20260505014654 | 16 | 184 | 1.6 | 3.2 | 0.00 | 0.00 | 0.00 | 49 | 1009.4 |
| 20260505014150 | 16 | 241 | 1.6 | 3.2 | 0.00 | 0.00 | 0.00 | 49 | 1009.2 |
| 20260505013648 | 16 | 223 | 6.4 | 8.0 | 0.00 | 0.00 | 0.00 | 49 | 1009.2 |
| 20260505013145 | 16 | 179 | 4.8 | 4.8 | 0.00 | 0.00 | 0.00 | 49 | 1008.9 |
| 20260505012643 | 16 | 138 | 8.0 | 11.3 | 0.00 | 0.00 | 0.00 | 48 | 1008.9 |
| 20260505012139 | 16 | 170 | 8.0 | 11.3 | 0.00 | 0.00 | 0.00 | 48 | 1008.8 |
| 20260505011635 | 16 | 204 | 4.8 | 4.8 | 0.00 | 0.00 | 0.00 | 49 | 1008.9 |
| 20260505011133 | 16 | 206 | 4.8 | 4.8 | 0.00 | 0.00 | 0.00 | 50 | 1008.6 |
| 20260505010633 | 16 | 192 | 4.8 | 4.8 | 0.00 | 0.00 | 0.00 | 51 | 1008.6 |
| 20260505010130 | 16 | 182 | 4.8 | 4.8 | 0.00 | 0.00 | 0.00 | 50 | 1008.5 |
| 20260505005626 | 17 | 200 | 4.8 | 4.8 | 0.00 | 0.00 | 0.00 | 49 | 1008.4 |
| 20260505005124 | 17 | 196 | 4.8 | 8.0 | 0.00 | 0.00 | 0.00 | 47 | 1008.2 |
| 20260505004621 | 17 | 195 | 3.2 | 3.2 | 0.00 | 0.00 | 0.00 | 48 | 1008.3 |
| 20260505004117 | 17 | 185 | 6.4 | 8.0 | 0.00 | 0.00 | 0.00 | 46 | 1008.1 |
| 20260505003615 | 17 | 183 | 6.4 | 8.0 | 0.00 | 0.00 | 0.00 | 46 | 1008.1 |
| 20260505003112 | 17 | 198 | 4.8 | 4.8 | 0.00 | 0.00 | 0.00 | 46 | 1007.8 |
| 20260505002608 | 17 | 192 | 4.8 | 8.0 | 0.00 | 0.00 | 0.00 | 46 | 1007.7 |
| 20260505002107 | 18 | 200 | 4.8 | 4.8 | 0.00 | 0.00 | 0.00 | 46 | 1007.5 |
| 20260505001603 | 18 | 157 | 4.8 | 4.8 | 0.00 | 0.00 | 0.00 | 45 | 1007.6 |
| 20260505001101 | 18 | 202 | 3.2 | 3.2 | 0.00 | 0.00 | 0.00 | 45 | 1007.1 |
| 20260505000558 | 18 | 180 | 6.4 | 8.0 | 0.00 | 0.00 | 0.00 | 44 | 1007.2 |
| 20260505000055 | 18 | 193 | 6.4 | 9.7 | 0.00 | 0.00 | 0.00 | 44 | 1007.2 |
| 20260504235552 | 18 | 202 | 6.4 | 8.0 | 0.00 | 0.00 | 0.00 | 43 | 1006.8 |
| 20260504235048 | 18 | 213 | 6.4 | 8.0 | 0.00 | 0.00 | 0.00 | 41 | 1006.6 |
| 20260504234545 | 18 | 231 | 4.8 | 8.0 | 0.00 | 0.00 | 0.00 | 41 | 1006.7 |
| 20260504234043 | 19 | 167 | 3.2 | 3.2 | 0.00 | 0.00 | 0.00 | 40 | 1006.7 |
| 20260504233538 | 19 | 237 | 4.8 | 8.0 | 0.00 | 0.00 | 0.00 | 39 | 1006.5 |
| 20260504233035 | 20 | 194 | 6.4 | 8.0 | 0.00 | 0.00 | 0.00 | 38 | 1006.6 |
| 20260504232532 | 20 | 197 | 6.4 | 8.0 | 0.00 | 0.00 | 0.00 | 36 | 1006.3 |
| 20260504232030 | 20 | 198 | 1.6 | 1.6 | 0.00 | 0.00 | 0.00 | 35 | 1006.0 |
| 20260504231526 | 20 | 238 | 1.6 | 1.6 | 0.00 | 0.00 | 0.00 | 34 | 1005.7 |
| 20260504231022 | 21 | 191 | 6.4 | 8.0 | 0.00 | 0.00 | 0.00 | 33 | 1005.9 |
| 20260504230519 | 21 | 230 | 1.6 | 3.2 | 0.00 | 0.00 | 0.00 | 34 | 1005.8 |
| 20260504230018 | 21 | 237 | 1.6 | 1.6 | 0.00 | 0.00 | 0.00 | 34 | 1005.9 |
| 20260504225514 | 21 | 216 | 1.6 | 1.6 | 0.00 | 0.00 | 0.00 | 34 | 1005.7 |
| 20260504225011 | 21 | 227 | 1.6 | 1.6 | 0.00 | 0.00 | 0.00 | 33 | 1005.7 |
| 20260504224508 | 21 | 231 | 1.6 | 3.2 | 0.00 | 0.00 | 0.00 | 32 | 1005.5 |
| 20260504224005 | 21 | 191 | 6.4 | 8.0 | 0.00 | 0.00 | 0.00 | 33 | 1005.7 |
| 20260504223501 | 21 | 205 | 1.6 | 3.2 | 0.00 | 0.00 | 0.00 | 33 | 1005.5 |
| 20260504222957 | 21 | 241 | 3.2 | 3.2 | 0.00 | 0.00 | 0.00 | 32 | 1005.6 |
| 20260504222454 | 21 | 163 | 4.8 | 4.8 | 0.00 | 0.00 | 0.00 | 33 | 1005.5 |
| 20260504221952 | 21 | 233 | 4.8 | 9.7 | 0.00 | 0.00 | 0.00 | 32 | 1005.5 |
| 20260504221449 | 21 | 198 | 1.6 | 1.6 | 0.00 | 0.00 | 0.00 | 32 | 1005.6 |
| 20260504220946 | 21 | 233 | 1.6 | 3.2 | 0.00 | 0.00 | 0.00 | 31 | 1005.6 |
| 20260504220442 | 21 | 232 | 4.8 | 4.8 | 0.00 | 0.00 | 0.00 | 32 | 1005.6 |
| 20260504215939 | 22 | 192 | 6.4 | 8.0 | 0.00 | 0.00 | 0.00 | 32 | 1005.5 |
| 20260504215436 | 22 | 207 | 4.8 | 8.0 | 0.00 | 0.00 | 0.00 | 32 | 1005.5 |
| 20260504214933 | 22 | 191 | 4.8 | 4.8 | 0.00 | 0.00 | 0.00 | 31 | 1005.4 |
| 20260504214429 | 22 | 341 | 6.4 | 8.0 | 0.00 | 0.00 | 0.00 | 31 | 1005.5 |
| 20260504213926 | 22 | 175 | 9.7 | 11.3 | 0.00 | 0.00 | 0.00 | 30 | 1005.5 |
| 20260504213422 | 21 | 195 | 3.2 | 3.2 | 0.00 | 0.00 | 0.00 | 32 | 1005.4 |
| 20260504212920 | 21 | 188 | 4.8 | 8.0 | 0.00 | 0.00 | 0.00 | 31 | 1005.5 |
| 20260504212415 | 22 | 200 | 4.8 | 4.8 | 0.00 | 0.00 | 0.00 | 31 | 1005.6 |
| 20260504211913 | 22 | 227 | 3.2 | 3.2 | 0.00 | 0.00 | 0.00 | 32 | 1005.5 |
| 20260504211409 | 22 | 216 | 3.2 | 3.2 | 0.00 | 0.00 | 0.00 | 32 | 1005.5 |
| 20260504210906 | 21 | 184 | 6.4 | 8.0 | 0.00 | 0.00 | 0.00 | 31 | 1005.7 |
| 20260504210403 | 22 | 210 | 4.8 | 9.7 | 0.00 | 0.00 | 0.00 | 31 | 1005.7 |
| 20260504205900 | 22 | 206 | 1.6 | 3.2 | 0.00 | 0.00 | 0.00 | 31 | 1005.5 |
| 20260504205358 | 22 | 177 | 4.8 | 8.0 | 0.00 | 0.00 | 0.00 | 31 | 1005.4 |
| 20260504204856 | 22 | 240 | 1.6 | 1.6 | 0.00 | 0.00 | 0.00 | 30 | 1005.5 |
| 20260504204354 | 22 | 248 | 1.6 | 3.2 | 0.00 | 0.00 | 0.00 | 30 | 1005.5 |
| 20260504203854 | 22 | 223 | 1.6 | 1.6 | 0.00 | 0.00 | 0.00 | 30 | 1005.4 |
| 20260504203350 | 22 | 189 | 11.3 | 12.9 | 0.00 | 0.00 | 0.00 | 29 | 1005.6 |
| 20260504202846 | 22 | 202 | 4.8 | 8.0 | 0.00 | 0.00 | 0.00 | 29 | 1005.6 |
| 20260504202343 | 22 | 215 | 4.8 | 8.0 | 0.00 | 0.00 | 0.00 | 29 | 1005.5 |
| 20260504201839 | 22 | 256 | 4.8 | 4.8 | 0.00 | 0.00 | 0.00 | 29 | 1005.5 |
| 20260504201337 | 22 | 257 | 3.2 | 3.2 | 0.00 | 0.00 | 0.00 | 29 | 1005.7 |
| 20260504200834 | 22 | 285 | 4.8 | 8.0 | 0.00 | 0.00 | 0.00 | 28 | 1005.7 |
| 20260504200331 | 22 | 216 | 3.2 | 3.2 | 0.00 | 0.00 | 0.00 | 27 | 1005.9 |
| 20260504195827 | 21 | 179 | 6.4 | 9.7 | 0.00 | 0.00 | 0.00 | 29 | 1005.9 |
| 20260504195323 | 22 | 232 | 8.0 | 11.3 | 0.00 | 0.00 | 0.00 | 29 | 1005.8 |
| 20260504194820 | 22 | 242 | 1.6 | 3.2 | 0.00 | 0.00 | 0.00 | 30 | 1005.5 |
| 20260504194316 | 22 | 219 | 4.8 | 4.8 | 0.00 | 0.00 | 0.00 | 31 | 1005.7 |
| 20260504193812 | 22 | 201 | 1.6 | 1.6 | 0.00 | 0.00 | 0.00 | 29 | 1005.9 |
| 20260504193310 | 22 | 246 | 6.4 | 9.7 | 0.00 | 0.00 | 0.00 | 31 | 1005.8 |
| 20260504192808 | 22 | 242 | 6.4 | 9.7 | 0.00 | 0.00 | 0.00 | 29 | 1005.7 |
| 20260504192306 | 22 | 195 | 8.0 | 9.7 | 0.00 | 0.00 | 0.00 | 30 | 1005.7 |
| 20260504191804 | 22 | 207 | 4.8 | 9.7 | 0.00 | 0.00 | 0.00 | 30 | 1005.8 |
| 20260504191301 | 22 | 240 | 4.8 | 8.0 | 0.00 | 0.00 | 0.00 | 29 | 1005.9 |
| 20260504190756 | 22 | 247 | 8.0 | 8.0 | 0.00 | 0.00 | 0.00 | 29 | 1005.9 |
| 20260504190253 | 22 | 223 | 8.0 | 14.5 | 0.00 | 0.00 | 0.00 | 29 | 1006.0 |
| 20260504185749 | 22 | 194 | 3.2 | 3.2 | 0.00 | 0.00 | 0.00 | 30 | 1005.8 |
| 20260504185246 | 22 | 213 | 3.2 | 3.2 | 0.00 | 0.00 | 0.00 | 31 | 1005.9 |
| 20260504184742 | 22 | 184 | 6.4 | 11.3 | 0.00 | 0.00 | 0.00 | 29 | 1006.0 |
| 20260504184238 | 23 | 233 | 4.8 | 8.0 | 0.00 | 0.00 | 0.00 | 29 | 1006.1 |
| 20260504183734 | 22 | 242 | 1.6 | 3.2 | 0.00 | 0.00 | 0.00 | 28 | 1005.9 |
| 20260504183231 | 22 | 232 | 8.0 | 9.7 | 0.00 | 0.00 | 0.00 | 30 | 1006.2 |
| 20260504182730 | 22 | 199 | 4.8 | 4.8 | 0.00 | 0.00 | 0.00 | 30 | 1006.0 |
| 20260504182226 | 21 | 232 | 4.8 | 8.0 | 0.00 | 0.00 | 0.00 | 30 | 1006.2 |
| 20260504181724 | 21 | 235 | 14.5 | 17.7 | 0.00 | 0.00 | 0.00 | 30 | 1006.3 |
| 20260504181221 | 21 | 210 | 3.2 | 8.0 | 0.00 | 0.00 | 0.00 | 31 | 1006.2 |
| 20260504180720 | 21 | 173 | 6.4 | 9.7 | 0.00 | 0.00 | 0.00 | 32 | 1006.0 |
| 20260504180218 | 22 | 187 | 6.4 | 8.0 | 0.00 | 0.00 | 0.00 | 30 | 1006.0 |
| 20260504175716 | 22 | 192 | 4.8 | 9.7 | 0.00 | 0.00 | 0.00 | 32 | 1006.3 |
| 20260504175212 | 21 | 254 | 4.8 | 8.0 | 0.00 | 0.00 | 0.00 | 30 | 1006.4 |
| 20260504174710 | 21 | 250 | 4.8 | 8.0 | 0.00 | 0.00 | 0.00 | 31 | 1006.5 |
| 20260504174208 | 21 | 209 | 4.8 | 4.8 | 0.00 | 0.00 | 0.00 | 33 | 1006.5 |
| 20260504173704 | 20 | 235 | 4.8 | 8.0 | 0.00 | 0.00 | 0.00 | 32 | 1006.6 |
| 20260504173201 | 21 | 238 | 6.4 | 12.9 | 0.00 | 0.00 | 0.00 | 32 | 1006.8 |
| 20260504172658 | 20 | 235 | 3.2 | 8.0 | 0.00 | 0.00 | 0.00 | 32 | 1007.0 |
| 20260504172154 | 21 | 154 | 16.1 | 22.5 | 0.00 | 0.00 | 0.00 | 30 | 1006.5 |
| 20260504171650 | 20 | 328 | 4.8 | 9.7 | 0.00 | 0.00 | 0.00 | 32 | 1006.7 |
| 20260504171148 | 20 | 239 | 4.8 | 8.0 | 0.00 | 0.00 | 0.00 | 33 | 1006.4 |
| 20260504170644 | 20 | 234 | 3.2 | 4.8 | 0.00 | 0.00 | 0.00 | 33 | 1006.6 |
| 20260504170142 | 20 | 171 | 6.4 | 9.7 | 0.00 | 0.00 | 0.00 | 31 | 1006.8 |
| 20260504151021 | 18 | 200 | 9.7 | 12.9 | 0.00 | 0.00 | 0.00 | 37 | 1008.0 |
| 20260504150519 | 19 | 215 | 4.8 | 8.0 | 0.00 | 0.00 | 0.00 | 38 | 1007.8 |
| 20260504140945 | 17 | 240 | 4.8 | 4.8 | 0.00 | 0.00 | 0.00 | 39 | 1008.3 |
| 20260504140442 | 17 | 192 | 3.2 | 3.2 | 0.00 | 0.00 | 0.00 | 40 | 1008.4 |
| 20260504130406 | 15 | 193 | 3.2 | 3.2 | 0.00 | 0.00 | 0.00 | 43 | 1009.0 |
| 20260504110253 | 9 | 211 | 1.6 | 3.2 | 0.00 | 0.00 | 0.00 | 55 | 1009.8 |
| 20260504100216 | 8 | 216 | 0.0 | 0.0 | 0.00 | 0.00 | 0.00 | 57 | 1009.7 |
| 20260504090139 | 7 | 234 | 0.0 | 1.6 | 0.00 | 0.00 | 0.00 | 58 | 1009.4 |
| 20260504081609 | 7 | 220 | 1.6 | 1.6 | 0.00 | 0.00 | 0.00 | 57 | 1009.6 |
| 20260504081105 | 7 | 204 | 3.2 | 3.2 | 0.00 | 0.00 | 0.00 | 58 | 1009.7 |
| 20260504080602 | 7 | 221 | 1.6 | 3.2 | 0.00 | 0.00 | 0.00 | 57 | 1009.6 |